Overview Statistics Trail Chart Weather Telemetry Raw packets
 

This is the latest recevied weather packets stored in our database for station/object K8RRT. If no packets are shown the sender has not sent any weather packets the latest 10 day(s).

<< 11 12 13 14 15 16 17 >>
Time Temp. Humidity Pressure Rain* Wind** Luminosity Snow
1788536439 32.78° C 71% 1012.6 hPa 0 mm - 797 W/m² -
1788536138 32.22° C 72% 1012.5 hPa 0 mm - 791 W/m² -
1788535835 31.67° C 71% 1012.5 hPa 0 mm - 752 W/m² -
1788535531 32.22° C 74% 1012.3 hPa 0 mm - 721 W/m² -
1788535226 32.22° C 74% 1012.4 hPa 0 mm - 732 W/m² -
1788534920 32.22° C 73% 1012.7 hPa 0 mm - 689 W/m² -
1788534615 32.22° C 73% 1012.7 hPa 0 mm - 675 W/m² -
1788534315 31.67° C 75% 1012.6 hPa 0 mm - 690 W/m² -
1788534010 31.67° C 77% 1012.7 hPa 0 mm - 679 W/m² -
1788533704 31.11° C 77% 1012.5 hPa 0 mm - 636 W/m² -
1788533399 31.11° C 77% 1012.8 hPa 0 mm - 621 W/m² -
1788533095 31.11° C 76% 1012.6 hPa 0 mm - 567 W/m² -
1788532790 30.56° C 78% 1012.7 hPa 0 mm - 572 W/m² -
1788532486 30.56° C 77% 1012.7 hPa 0 mm - 558 W/m² -
1788532183 30.56° C 77% 1012.6 hPa 0 mm - 550 W/m² -
1788531879 30.56° C 78% 1012.7 hPa 0 mm - 553 W/m² -
1788531573 30.56° C 77% 1012.6 hPa 0 mm - 533 W/m² -
1788531268 30.56° C 77% 1012.6 hPa 0 mm - 477 W/m² -
1788530965 29.44° C 81% 1012.6 hPa 0 mm - 466 W/m² -
1788530665 29.44° C 83% 1012.7 hPa 0 mm - 453 W/m² -
1788530364 28.89° C 83% 1012.5 hPa 0 mm - 459 W/m² -
1788530064 28.89° C 84% 1012.7 hPa 0 mm - 390 W/m² -
1788529760 28.89° C 84% 1012.3 hPa 0 mm - 379 W/m² -
1788529460 28.89° C 86% 1012.6 hPa 0 mm - 366 W/m² -
1788529165 28.33° C 86% 1012.7 hPa 0 mm - 321 W/m² -

* Rain latest hour (hover to see other rain measurements)
** Current wind speed in m/s (hover to see current wind gust speed)